Location: Newark
(54.0500°N, 12.8333°E)
Time: 08:38:03
(UTC+00:00)

Transit 4A - All Passes

Search period start: 19 January 2020 00:00
Search period end: 29 January 2020 00:00
Orbit: 871 x 973 km, 66.8° (Epoch: 18 January)

Date Brightness Start Highest point End Pass type
(mag) Time Alt. Az. Time Alt. Az. Time Alt. Az.
19 Jan - 06:58:44 10° S 07:04:25 45° ESE 07:10:00 10° NE daylight
19 Jan - 08:44:53 10° WSW 08:50:45 54° NW 08:56:31 10° NE daylight
19 Jan - 10:33:25 10° WNW 10:38:20 26° NNW 10:43:13 10° NE daylight
19 Jan - 12:21:41 10° NW 12:26:31 26° NNE 12:31:20 10° ENE daylight
19 Jan - 14:08:28 10° NW 14:14:10 51° NE 14:19:51 10° ESE daylight
19 Jan - 15:55:00 10° NW 16:00:33 47° WSW 16:06:06 10° S visible
20 Jan - 05:25:31 10° SE 05:28:23 14° ESE 05:31:13 10° ENE visible
20 Jan - 07:07:43 10° SSW 07:13:38 61° ESE 07:19:26 10° NE daylight
20 Jan - 08:54:35 10° WSW 09:00:16 43° NW 09:05:52 10° NE daylight
20 Jan - 10:43:17 10° WNW 10:48:04 24° N 10:52:48 10° NE daylight
20 Jan - 12:31:13 10° NW 12:36:14 28° NNE 12:41:12 10° ENE daylight
20 Jan - 14:17:48 10° NW 14:23:38 64° NE 14:29:26 10° SE daylight
20 Jan - 16:04:30 10° NW 16:09:43 34° WSW 16:14:54 10° S visible
21 Jan - 05:33:13 10° SSE 05:37:22 20° ESE 05:41:28 10° ENE visible
21 Jan - 07:16:55 10° SSW 07:22:55 81° SE 07:28:50 10° NE daylight
21 Jan - 09:04:21 10° W 09:09:50 36° NNW 09:15:14 10° NE daylight
21 Jan - 10:53:07 10° NW 10:57:48 24° N 11:02:27 10° NE daylight
21 Jan - 12:40:41 10° NW 12:45:54 32° NNE 12:51:04 10° E daylight
21 Jan - 14:27:09 10° NW 14:33:02 82° NE 14:38:53 10° SE daylight
21 Jan - 16:14:10 10° WNW 16:18:48 25° WSW 16:23:27 10° SSW visible
22 Jan - 05:41:29 10° SSE 05:46:25 27° ESE 05:51:17 10° NE visible
22 Jan - 07:26:15 10° SW 07:32:16 79° NW 07:38:11 10° NE daylight
22 Jan - 09:14:12 10° W 09:19:27 31° NNW 09:24:39 10° NE daylight
22 Jan - 11:02:52 10° NW 11:07:33 24° N 11:12:12 10° NE daylight
22 Jan - 12:50:05 10° NW 12:55:30 37° NNE 13:00:53 10° E daylight
22 Jan - 14:36:31 10° NW 14:42:22 77° SW 14:48:12 10° SSE daylight
22 Jan - 16:24:02 10° WNW 16:27:49 18° WSW 16:31:36 10° SSW visible
23 Jan - 05:50:05 10° S 05:55:32 37° ESE 06:00:53 10° NE visible
23 Jan - 07:35:45 10° WSW 07:41:41 62° NW 07:47:31 10° NE daylight
23 Jan - 09:24:05 10° WNW 09:29:07 28° NNW 09:34:06 10° NE daylight
23 Jan - 11:12:33 10° NW 11:17:17 24° N 11:22:01 10° ENE daylight
23 Jan - 12:59:28 10° NW 13:05:04 44° NE 13:10:39 10° ESE daylight
23 Jan - 14:45:55 10° NW 14:51:38 57° WSW 14:57:20 10° SSE daylight
23 Jan - 16:34:31 10° WNW 16:36:46 12° WSW 16:39:02 10° SW visible
24 Jan - 04:18:33 10° ESE 04:19:40 11° E 04:20:48 10° E visible
24 Jan - 05:58:57 10° SSW 06:04:43 50° ESE 06:10:23 10° NE visible
24 Jan - 07:45:22 10° WSW 07:51:09 49° NW 07:56:52 10° NE daylight
24 Jan - 09:33:59 10° WNW 09:38:50 25° NNW 09:43:38 10° NE daylight
24 Jan - 11:22:07 10° NW 11:27:01 26° NNE 11:31:52 10° ENE daylight
24 Jan - 13:08:49 10° NW 13:14:34 55° NE 13:20:18 10° ESE daylight
24 Jan - 14:55:24 10° NW 15:00:50 42° WSW 15:06:17 10° S daylight
25 Jan - 04:25:12 10° SE 04:28:36 16° ESE 04:31:59 10° ENE visible
25 Jan - 06:08:01 10° SSW 06:13:57 68° SE 06:19:49 10° NE visible
25 Jan - 07:55:06 10° WSW 08:00:41 40° NNW 08:06:13 10° NE daylight
25 Jan - 09:43:50 10° WNW 09:48:34 24° N 09:53:15 10° NE daylight
25 Jan - 11:31:38 10° NW 11:36:42 29° NNE 11:41:45 10° E daylight
25 Jan - 13:18:10 10° NW 13:24:01 70° NE 13:29:51 10° SE daylight
25 Jan - 15:04:57 10° NW 15:09:58 31° WSW 15:15:00 10° S daylight
26 Jan - 04:33:09 10° SSE 04:37:37 22° ESE 04:42:01 10° ENE visible
26 Jan - 06:17:16 10° SW 06:23:16 88° SE 06:29:11 10° NE visible
26 Jan - 08:04:54 10° W 08:10:17 34° NNW 08:15:36 10° NE daylight
26 Jan - 09:53:38 10° NW 09:58:18 23° N 10:02:56 10° NE daylight
26 Jan - 11:41:04 10° NW 11:46:21 33° NNE 11:51:36 10° E daylight
26 Jan - 13:27:31 10° NW 13:33:23 90° NNE 13:39:15 10° SE daylight
26 Jan - 15:14:40 10° WNW 15:19:02 22° WSW 15:23:25 10° SSW daylight
27 Jan - 04:41:34 10° S 04:46:41 30° ESE 04:51:44 10° NE visible
27 Jan - 06:26:40 10° SW 06:32:38 73° NW 06:38:32 10° NE visible
27 Jan - 08:14:46 10° W 08:19:56 30° NNW 08:25:02 10° NE daylight
27 Jan - 10:03:21 10° NW 10:08:03 24° N 10:12:43 10° ENE daylight
27 Jan - 11:50:27 10° NW 11:55:57 39° NNE 12:01:24 10° E daylight
27 Jan - 13:36:53 10° NW 13:42:42 69° SW 13:48:30 10° SSE daylight
27 Jan - 15:24:42 10° WNW 15:28:03 16° WSW 15:31:24 10° SW daylight
28 Jan - 04:50:15 10° S 04:55:49 41° ESE 05:01:18 10° NE visible
28 Jan - 06:36:12 10° WSW 06:42:05 57° NW 06:47:52 10° NE daylight
28 Jan - 08:24:39 10° WNW 08:29:36 27° NNW 08:34:31 10° NE daylight
28 Jan - 10:12:59 10° NW 10:17:47 25° N 10:22:33 10° ENE daylight
28 Jan - 11:59:49 10° NW 12:05:29 48° NE 12:11:07 10° ESE daylight
28 Jan - 13:46:19 10° NW 13:51:56 51° WSW 13:57:35 10° SSE daylight
28 Jan - 15:35:50 10° W 15:36:59 11° W 15:38:07 10° WSW daylight
